Probability
0 0 0 1 1 1 0 0 0 0 0 0 0 0 0 0 0 0 0 0 0 1 4 7 8 6 4 3 2 1 0 0 0 0 0 0 0 1 2 1 1 1 1 0 1 2 2 1 0
0 0 0 1 1 0 0 0 0 0 0 0 0 0 0 0 0 1 1 0 0 0 2 6 8 6 4 3 2 1 0 0 0 0 0 0 0 1 2 1 0 0 0 0 1 1 1 0 1
0 0 0 0 0 0 0 0 0 0 0 0 0 0 1 1 1 2 2 2 1 1 2 5 6 6 4 3 2 2 1 1 2 1 0 0 0 1 1 0 0 0 0 0 0 1 0 1 2
0 0 0 0 0 0 0 0 0 0 0 0 0 1 2 2 2 3 4 4 3 3 4 6 6 5 3 2 1 2 3 3 3 2 1 0 0 0 0 0 0 1 1 1 1 1 0 1 2
0 0 0 0 0 0 0 0 0 0 0 0 0 1 3 3 2 3 4 5 5 4 5 8 8 5 3 2 2 3 4 3 3 3 2 1 0 0 0 0 0 1 2 2 1 1 0 0 1
0 0 0 0 0 0 0 0 0 0 0 0 0 1 3 4 4 4 4 5 5 4 3 6 7 6 5 5 4 4 5 4 4 4 3 1 1 1 1 1 1 1 2 3 2 1 0 0 0
0 0 0 0 0 0 0 0 0 0 0 0 0 1 4 7 7 6 6 6 5 3 3 3 4 5 6 6 6 6 6 6 7 7 5 2 1 1 2 3 3 2 3 4 3 1 1 2 2
0 0 0 0 0 0 0 0 0 0 0 0 1 2 6 10 10 8 8 8 7 6 6 6 5 4 4 5 6 7 7 8 9 9 7 3 0 0 1 3 3 3 3 4 3 3 3 3 4
0 0 0 0 0 0 0 0 0 0 0 1 2 3 8 13 12 10 10 11 11 10 10 10 8 6 4 5 6 7 8 8 8 7 6 3 0 0 0 1 2 2 3 3 3 3 3 4 6
0 0 0 0 0 0 0 0 0 0 0 1 2 4 8 12 13 11 11 12 13 12 11 11 10 8 7 8 10 10 9 8 6 5 5 3 1 1 0 0 1 1 1 1 1 2 3 4 5
0 0 0 0 0 0 0 0 0 0 0 0 1 4 8 11 12 11 11 13 14 13 11 10 10 10 11 12 13 12 11 9 7 6 6 5 5 4 2 1 1 0 0 0 0 1 1 2 3
0 0 0 0 1 1 0 0 0 0 0 0 2 5 8 11 10 9 11 14 15 13 12 10 10 11 13 13 14 13 12 10 8 7 8 8 8 6 4 3 3 1 1 1 0 0 0 0 1
0 0 0 0 1 1 0 0 0 0 0 1 3 5 7 10 9 7 10 13 14 14 12 11 10 11 12 12 12 13 12 10 9 9 9 9 8 7 7 6 6 4 3 3 1 1 0 0 0
0 0 0 0 1 1 0 0 0 0 0 1 3 3 5 8 9 8 9 12 13 14 13 11 11 11 11 11 11 12 12 10 10 11 10 7 6 7 8 8 8 7 6 5 4 3 2 1 0
0 0 0 0 0 0 0 0 1 1 1 2 2 3 5 7 8 9 10 11 13 14 13 13 12 11 11 12 12 13 12 11 10 11 10 7 6 7 7 7 8 8 7 6 6 6 5 2 1
0 0 0 0 0 0 0 0 1 1 1 2 4 5 7 8 10 10 10 11 13 15 15 15 14 15 15 15 14 13 12 11 10 9 8 7 6 6 6 6 7 7 7 7 8 8 6 4 3
0 0 0 0 0 0 0 0 1 1 2 3 6 8 8 10 12 11 10 11 15 17 17 17 17 18 19 17 15 12 10 9 8 7 7 7 7 7 7 7 7 7 7 8 9 8 6 5 5
0 0 0 0 0 0 0 0 2 2 2 4 6 8 9 10 11 11 12 14 18 21 21 20 20 20 21 20 16 12 8 6 6 6 7 9 9 10 9 8 8 8 8 8 9 9 7 6 5
0 0 0 0 0 0 0 0 2 4 3 3 6 8 8 9 10 13 17 19 21 24 25 24 22 21 21 20 18 14 10 8 7 8 10 11 13 13 12 11 10 9 10 9 9 10 9 6 5
0 0 0 0 0 0 0 1 3 5 4 3 4 6 8 9 13 18 21 21 21 22 25 25 23 21 19 18 18 16 14 12 11 12 12 13 14 14 13 12 10 10 10 9 11 13 11 7 6
0 0 0 0 0 0 1 2 5 5 4 4 4 5 8 11 16 19 20 19 18 17 18 21 24 22 19 18 18 17 16 16 16 15 15 14 14 12 11 10 10 9 9 9 11 14 12 9 8
0 0 0 0 0 0 1 2 5 6 5 5 5 6 9 12 14 16 16 15 14 14 15 18 22 22 20 20 21 19 17 17 18 18 17 16 15 12 9 8 8 8 9 9 10 11 11 10 10
0 0 0 0 0 0 0 1 3 5 5 4 4 6 8 10 13 15 15 13 14 15 16 18 20 20 20 21 22 21 19 18 18 19 19 19 19 16 12 10 9 8 9 10 11 11 10 11 12
0 0 0 0 0 0 0 0 1 2 2 2 3 4 6 9 13 16 16 15 16 17 17 18 20 21 21 21 22 22 21 21 20 20 20 20 20 19 16 13 12 11 11 12 13 11 10 12 12
0 0 0 0 0 0 0 0 0 0 0 0 1 3 6 9 14 19 19 18 19 19 18 19 22 24 23 22 22 23 24 24 23 22 21 21 19 18 16 15 14 14 14 14 13 10 9 11 12
0 0 0 0 0 0 0 1 1 1 1 1 2 4 8 12 17 21 21 19 20 20 20 22 24 25 23 22 23 24 24 24 24 24 23 21 19 17 15 15 15 14 14 14 12 10 10 11 12
0 0 0 0 0 0 0 1 2 3 3 3 3 5 9 14 17 19 20 19 18 18 20 22 23 23 21 20 22 24 24 24 24 24 23 21 19 18 16 15 15 14 14 13 13 12 11 11 12
0 0 0 0 0 0 1 1 2 4 4 2 2 4 9 13 15 16 17 17 16 15 17 18 19 19 19 19 20 22 23 23 23 23 22 20 19 19 18 17 16 15 13 12 12 11 11 11 11
0 0 0 0 0 0 1 2 3 3 3 3 3 4 8 11 14 16 16 15 13 12 12 13 16 17 18 19 20 22 23 23 23 22 21 20 18 17 18 18 16 13 11 10 9 9 9 10 10
0 0 0 0 0 0 1 3 3 2 3 5 6 6 8 11 14 17 16 14 11 10 10 12 15 17 19 21 22 23 24 24 24 22 21 20 17 16 17 18 15 11 9 8 7 6 7 9 10
Wind_Speed
8 8 6 6 8 2 6 7 5 4 5 5 5 4 5 6 7 7 7 8 9 11 12 13 10 10 10 10 10 11 11 11 11 11 11 11 11 11 10 10 9 9 9 9 10 9 9 9 8
5 5 7 7 5 3 7 6 5 6 5 3 3 3 3 6 6 7 8 9 10 11 12 11 12 10 10 10 10 10 11 11 11 11 11 11 11 10 10 10 9 8 8 8 9 9 8 8 8
6 7 7 5 0 3 7 6 5 5 3 1 2 3 4 6 5 6 8 11 11 11 11 12 11 10 10 10 10 10 10 10 10 10 10 10 10 10 9 9 9 8 7 7 8 8 8 7 7
6 7 7 4 4 6 5 5 3 3 4 2 2 4 5 6 4 7 11 11 11 11 11 13 10 10 9 9 10 10 10 10 10 10 10 9 9 9 9 8 8 8 7 7 7 7 7 6 6
6 7 6 3 4 5 3 3 0 1 2 3 1 4 6 6 7 10 11 11 11 10 10 13 9 9 9 9 9 9 9 9 9 9 9 9 9 8 8 8 8 7 6 6 6 6 6 5 6
6 6 5 3 5 4 3 1 1 1 2 3 2 3 7 7 8 10 11 10 10 10 10 12 10 8 8 8 8 8 8 8 8 9 8 8 8 8 8 7 7 6 6 6 6 6 6 5 5
7 5 2 2 3 4 3 0 1 1 2 2 1 2 8 8 8 9 10 10 9 9 9 10 11 10 9 7 7 8 8 8 8 8 8 7 7 7 7 7 7 7 6 6 6 6 6 5 5
6 6 4 3 2 2 3 1 1 2 0 2 1 1 5 10 10 10 10 10 9 9 9 9 9 9 9 10 9 7 7 7 7 7 7 6 7 8 7 8 7 6 7 7 7 6 6 6 6
6 8 4 2 1 1 2 1 0 1 2 2 0 3 6 13 13 12 11 10 9 9 8 8 8 8 7 7 9 9 8 7 7 8 8 7 6 6 7 5 6 6 6 6 6 6 6 7 8
7 6 1 2 3 1 1 2 1 3 4 3 3 5 9 13 13 13 12 12 11 10 9 8 7 7 7 6 6 5 6 6 5 4 6 5 3 2 2 7 6 5 6 6 7 7 8 7 5
5 5 1 1 2 3 3 2 2 4 4 3 3 7 10 12 12 12 11 11 11 10 9 8 7 7 6 5 4 3 3 4 4 4 4 3 3 3 3 3 5 5 7 5 7 8 4 3 2
5 3 4 3 2 4 4 3 3 4 3 3 2 8 10 11 12 12 11 10 10 10 10 8 8 7 6 4 4 4 3 3 3 4 4 3 2 2 2 1 2 3 2 3 3 3 3 3 3
8 4 3 4 4 4 4 4 4 4 3 2 3 8 10 10 10 9 9 9 9 9 9 9 8 7 6 4 3 3 3 3 3 3 3 3 2 2 2 2 1 2 2 3 3 3 4 3 4
4 4 5 5 4 4 5 5 4 2 1 2 4 7 9 9 9 9 9 10 9 9 8 8 8 7 7 5 4 3 3 3 3 3 3 4 2 2 2 3 2 2 2 2 2 3 3 3 2
5 7 7 6 5 4 6 7 4 2 1 3 5 6 7 7 8 8 8 9 9 9 8 8 8 8 7 6 5 4 3 3 3 3 3 3 3 3 2 2 3 2 2 3 3 3 3 3 4
9 10 10 6 5 5 9 7 3 2 3 3 4 5 6 6 7 6 7 7 8 8 8 8 7 8 7 5 4 3 3 3 2 2 3 3 3 3 3 2 2 2 2 3 3 3 3 3 3
11 11 9 6 5 5 8 6 2 2 3 3 4 4 5 5 5 5 6 7 7 8 8 8 7 7 7 6 5 4 3 3 2 2 2 3 3 4 4 2 1 3 2 3 3 3 3 3 2
8 10 9 8 5 6 8 6 4 3 3 4 4 4 5 5 5 5 6 7 7 7 8 8 8 7 6 6 5 4 4 3 3 2 2 3 3 4 4 3 3 3 3 3 2 3 3 3 3
8 10 10 7 3 6 7 7 5 4 5 5 5 4 5 5 5 5 6 7 7 7 8 8 7 7 6 5 5 4 4 3 3 3 3 3 3 3 3 3 3 3 3 3 3 3 5 4 3
11 12 10 5 3 6 7 8 6 6 6 6 6 6 6 5 5 6 6 7 7 7 7 7 7 7 6 4 4 3 3 3 2 2 2 3 3 4 4 4 4 4 3 4 3 3 3 3 3
12 12 9 6 5 7 8 10 8 7 6 6 6 6 6 6 6 7 7 8 8 7 7 6 7 7 6 6 4 4 4 3 3 3 3 3 3 3 3 3 3 3 4 3 4 4 4 4 4
11 8 8 8 9 7 7 8 5 6 6 6 7 7 6 6 6 7 8 8 8 8 8 7 7 7 6 6 5 5 4 4 3 2 2 3 3 3 3 4 3 3 3 3 5 4 4 5 4
8 5 8 10 10 10 9 9 5 5 6 6 6 6 6 6 6 7 7 7 8 8 8 8 8 7 7 6 6 5 4 3 3 3 3 3 3 3 3 4 3 3 3 3 4 4 4 4 4
6 6 8 10 10 12 9 10 6 4 5 5 5 5 5 5 5 6 7 7 7 6 7 8 8 7 7 7 6 5 4 4 3 3 3 3 3 3 3 4 3 4 3 4 4 4 5 4 4
9 9 7 9 9 8 4 8 4 1 2 3 4 3 4 5 5 6 7 7 7 7 7 7 8 7 7 7 6 5 5 5 4 4 3 3 2 2 2 3 3 3 3 4 4 4 4 5 5
10 11 8 7 7 5 5 7 2 1 0 1 2 2 2 4 5 5 5 6 6 6 6 6 7 7 7 7 6 5 5 4 3 3 3 3 2 2 2 3 3 3 3 3 3 4 5 4 5
11 11 9 10 10 9 6 4 5 2 2 1 1 1 2 3 4 4 5 5 5 5 6 6 6 7 7 6 6 5 5 4 3 3 4 2 2 2 3 3 3 3 3 4 4 4 4 4 5
9 8 7 10 9 10 8 7 4 3 3 1 1 0 1 2 3 3 4 4 4 5 5 5 5 6 6 6 6 5 5 4 4 3 3 3 3 2 3 3 3 3 4 4 5 4 4 4 4
9 10 9 9 9 9 8 3 2 1 1 2 1 1 0 2 2 3 3 4 4 4 4 4 5 5 5 5 5 5 4 4 4 3 3 3 3 3 3 3 3 3 4 4 4 4 4 5 5
9 9 10 10 9 9 9 2 4 2 2 2 2 1 1 1 1 2 3 3 3 4 4 4 5 5 5 4 4 4 4 4 4 4 3 3 3 4 3 3 3 4 4 4 4 5 4 5 5
Wind_Direction
207 214 231 240 235 184 77 72 58 65 64 56 44 33 36 27 15 56 91 128 134 136 133 141 138 138 136 136 135 133 131 131 131 130 127 124 121 117 116 115 113 114 117 121 120 119 120 117 118
217 225 236 241 251 115 87 73 66 54 64 80 85 74 70 66 57 89 121 133 142 137 138 139 136 141 140 138 136 136 135 133 133 133 132 129 127 125 123 123 119 116 120 124 124 121 119 114 115
227 239 258 248 9 60 85 80 74 80 88 90 92 65 45 65 90 103 119 142 145 141 139 128 141 144 143 142 140 139 139 139 136 135 134 132 131 130 128 126 124 120 121 123 123 123 118 116 114
240 228 237 243 101 68 65 80 79 115 114 89 108 103 90 64 86 110 133 148 146 143 139 131 147 147 147 146 145 144 143 142 140 136 135 133 134 133 131 130 128 125 124 123 124 123 118 120 124
242 253 226 160 105 92 86 70 99 133 100 96 119 101 101 92 99 122 142 149 147 143 137 133 142 145 147 148 146 145 143 142 139 136 134 133 133 137 137 139 135 132 129 128 128 124 122 124 130
242 245 229 150 116 118 110 91 199 178 115 117 134 121 100 115 128 136 143 150 147 144 140 133 141 144 145 148 146 142 142 141 138 136 139 141 142 143 142 142 140 138 136 134 131 128 130 132 135
271 263 237 159 136 133 94 50 275 234 167 134 148 132 121 135 135 142 145 148 146 149 146 145 152 154 152 147 145 143 145 144 142 140 143 147 151 153 154 153 149 147 146 144 141 138 139 139 143
282 263 217 199 182 124 107 152 322 286 171 106 205 203 131 142 147 147 148 150 152 155 154 154 158 158 161 158 152 149 148 148 150 151 152 156 163 165 166 170 152 156 157 155 152 150 147 144 146
255 248 218 213 227 119 120 219 151 292 172 168 132 23 101 138 152 155 155 158 161 162 162 164 163 162 164 156 150 160 159 157 169 167 166 188 184 172 173 138 140 156 161 162 159 159 159 162 157
245 247 233 345 316 323 291 264 251 213 201 192 154 107 127 150 164 170 169 171 171 171 169 168 168 165 164 154 152 168 168 159 179 170 174 186 170 172 160 129 147 158 160 166 163 171 186 201 169
245 267 292 282 317 301 275 273 277 247 235 234 195 157 157 166 175 182 180 176 174 170 170 168 167 169 166 158 159 162 165 158 174 163 170 170 170 166 175 159 165 175 183 181 169 189 190 174 155
236 251 271 271 298 282 278 276 264 266 289 308 213 166 169 179 186 188 185 179 175 174 172 170 168 168 169 161 159 170 166 161 166 158 182 172 172 176 164 185 174 185 181 180 189 179 165 168 175
228 232 244 255 258 267 268 256 263 274 295 292 177 172 180 186 190 191 185 177 176 177 173 172 170 163 165 166 178 167 167 165 163 171 176 196 191 182 174 187 192 195 171 180 194 191 170 179 178
242 241 244 250 246 239 244 248 251 278 283 191 183 183 188 192 192 185 183 180 178 175 174 170 173 167 169 171 177 174 172 171 182 179 178 204 207 188 191 187 189 189 178 186 198 184 175 175 178
234 238 232 228 230 223 243 236 232 240 209 187 188 187 185 190 193 190 183 181 177 173 172 172 173 171 176 180 183 178 174 178 183 177 183 200 208 193 203 193 194 183 179 178 195 181 179 180 179
225 234 233 201 218 215 245 243 172 196 193 184 180 178 180 184 192 186 182 183 177 173 171 173 174 169 174 180 185 180 177 178 182 179 178 192 204 202 215 209 197 185 195 191 186 200 184 180 187
217 233 237 205 202 224 240 251 186 186 203 191 180 177 180 176 187 183 179 180 178 174 171 170 172 168 171 174 176 175 170 183 187 186 183 182 201 206 215 215 203 204 200 204 205 179 199 187 196
230 239 238 236 198 232 238 244 225 212 224 216 203 191 187 184 188 181 177 174 175 171 167 169 170 170 173 175 174 178 177 185 192 191 181 191 197 202 217 204 206 216 205 205 204 185 191 199 201
262 253 250 247 222 243 243 246 239 225 227 225 222 214 204 197 191 176 170 169 171 166 165 167 169 168 177 179 185 179 183 193 191 187 184 193 199 194 210 218 195 214 206 211 202 201 181 195 187
244 246 246 237 220 255 250 250 245 227 233 234 230 226 223 208 186 174 168 167 168 168 170 169 171 169 178 176 184 181 186 191 180 176 169 194 199 206 202 210 212 205 202 197 202 208 211 198 196
238 247 250 250 231 233 254 247 231 224 227 232 236 236 227 218 200 185 179 176 172 170 173 172 170 168 174 173 174 170 178 190 181 181 175 190 204 205 217 206 222 213 211 191 202 204 212 213 203
236 236 249 244 244 240 236 265 226 216 221 228 232 233 229 221 205 189 184 182 179 174 170 170 168 169 170 177 179 180 187 190 187 196 176 185 195 202 204 211 211 218 212 197 209 199 213 220 216
245 237 237 241 248 260 240 258 248 206 232 237 235 233 224 215 203 190 187 185 182 174 169 166 166 168 172 176 179 189 191 190 188 190 178 197 184 197 200 205 207 207 214 209 215 206 221 220 230
226 222 226 235 241 247 245 253 262 229 250 251 234 225 214 210 197 189 181 179 176 174 171 166 166 169 173 176 184 191 191 195 193 193 188 200 185 190 194 207 211 218 217 211 213 214 216 227 232
216 227 228 225 226 242 221 245 252 282 286 269 256 227 203 200 189 181 178 175 174 174 174 172 172 173 176 179 185 189 195 199 200 208 196 212 198 189 191 215 217 225 222 221 222 218 224 223 225
217 234 248 259 257 249 210 239 204 116 308 289 275 236 188 192 181 175 176 175 175 174 175 178 178 177 180 182 186 192 201 210 201 207 220 209 216 198 186 209 217 224 223 221 221 228 222 220 224
221 231 254 266 266 261 230 215 201 177 215 260 290 242 186 178 171 170 170 175 177 176 176 182 183 180 183 184 185 189 195 212 208 204 221 213 210 199 195 203 210 217 218 223 227 228 225 220 224
244 237 234 244 254 256 243 234 225 198 237 252 240 207 172 168 177 170 166 167 175 178 176 180 181 182 184 185 192 184 190 200 204 210 209 221 214 209 203 203 209 213 212 216 228 229 219 222 225
212 217 232 245 256 263 263 238 65 339 314 298 298 3 122 178 189 174 164 166 166 161 167 179 181 183 181 185 188 189 191 197 203 206 207 210 214 210 215 210 210 215 217 220 226 232 224 227 227
231 233 229 239 242 249 267 244 91 53 19 356 2 30 64 140 168 169 163 159 157 156 166 176 184 186 182 179 182 188 192 195 202 202 202 200 208 216 216 214 214 219 220 219 222 225 222 225 225